Weather History for Mobile Downtown, AL

Change the Weather History Date:

Monday, November 12, 2012

  Actual Average Record
Temperature  
Mean Temperature 62 °F -  
Max Temperature 73 °F 68 °F 81 °F (2003)
Min Temperature 50 °F 49 °F 35 °F (2011)
Degree Days  
Heating Degree Days 3    
Growing Degree Days 12 (Base 50)    
Moisture  
Dew Point 57 °F    
Average Humidity 80    
Maximum Humidity 94    
Minimum Humidity 68    
Precipitation  
Precipitation 0.08 in - - ()
Sea Level Pressure  
Sea Level Pressure 30.24 in    
Wind  
Wind Speed 11 mph (NNW)    
Max Wind Speed 17 mph    
Max Gust Speed 29 mph    
Visibility 10 miles    
Events Rain    
Averages and records for this station are not official NWS values.
T = Trace of Precipitation, MM = Missing Value Source: NWS Daily Summary

Daily Weather History Graph

Daily Weather History Graph

Search for Another Location

Airport:

Trip Planner

Search our weather history database for the weather conditions in past years. The results will help you decide how hot, cold, wet, or windy it might be!

Date:

Astronomy

Nov. 12, 2012 Rise Set
Actual Time 6:16 AM CST 4:56 PM CST
Civil Twilight 5:50 AM CST 5:21 PM CST
Nautical Twilight 5:21 AM CST 5:50 PM CST
Astronomical Twilight 4:53 AM CST 6:19 PM CST
Moon 4:45 AM CST (11/12) 3:59 PM CST (11/12)
Length of Visible Light 11h 30m
Length of Day
10h 39m
Waning Crescent, 2% of the Moon is Illuminated
Nov 12
Waning Crescent
Nov 13
New
Nov 20
First Quarter
Nov 28
Full
Dec 6
Last Quarter

Hourly Weather History & Observations

Time (CST) Temp. Dew Point Humidity Pressure Visibility Wind Dir Wind Speed Gust Speed Precip Events Conditions
12:53 AM 69.1 °F 62.1 °F 78% 30.16 in 10.0 mi SE 12.7 mph - N/A   Clear
1:53 AM 69.1 °F 63.0 °F 81% 30.16 in 10.0 mi SSE 6.9 mph - N/A   Clear
2:53 AM 69.1 °F 63.0 °F 81% 30.14 in 10.0 mi SSE 9.2 mph - N/A   Clear
3:53 AM 70.0 °F 64.0 °F 81% 30.12 in 10.0 mi SSE 10.4 mph - N/A   Partly Cloudy
4:53 AM 71.1 °F 64.0 °F 78% 30.15 in 10.0 mi South 5.8 mph - N/A   Mostly Cloudy
5:53 AM 71.1 °F 64.0 °F 78% 30.17 in 10.0 mi South 4.6 mph - N/A   Overcast
6:53 AM 71.1 °F 64.9 °F 81% 30.17 in 10.0 mi South 5.8 mph - N/A   Overcast
7:53 AM 72.0 °F 64.9 °F 78% 30.19 in 10.0 mi South 6.9 mph - N/A   Overcast
8:00 AM 71.6 °F 64.4 °F 78% 30.19 in 10.0 mi South 9.2 mph - N/A   Overcast
8:53 AM 73.0 °F 64.9 °F 76% 30.22 in 10.0 mi South 5.8 mph - N/A   Overcast
9:10 AM 71.6 °F 66.2 °F 83% 30.24 in 2.0 mi West 16.1 mph 25.3 mph 0.05 in Rain Heavy Rain
9:31 AM 62.6 °F 60.8 °F 94% 30.25 in 10.0 mi NW 10.4 mph - 0.07 in Rain Light Rain
9:39 AM 62.6 °F 60.8 °F 94% 30.26 in 10.0 mi WNW 10.4 mph - 0.07 in Rain Light Rain
9:53 AM 63.0 °F 59.0 °F 87% 30.27 in 10.0 mi NW 15.0 mph 23.0 mph 0.07 in   Overcast
10:53 AM 62.1 °F 57.9 °F 86% 30.27 in 10.0 mi NNW 16.1 mph 20.7 mph 0.00 in   Overcast
11:53 AM 61.0 °F 55.9 °F 83% 30.26 in 10.0 mi NW 15.0 mph - N/A   Overcast
12:51 PM 60.8 °F 57.2 °F 88% 30.24 in 10.0 mi NNW 16.1 mph - 0.00 in   Overcast
12:53 PM 61.0 °F 57.0 °F 87% 30.24 in 10.0 mi NNW 16.1 mph - 0.00 in   Overcast
1:25 PM 60.8 °F 55.4 °F 82% 30.24 in 10.0 mi NNW 15.0 mph - N/A   Overcast
1:53 PM 60.1 °F 55.0 °F 83% 30.24 in 10.0 mi NNW 12.7 mph - 0.00 in Rain Light Rain
2:00 PM 60.8 °F 55.4 °F 82% 30.23 in 10.0 mi North 15.0 mph 21.9 mph 0.00 in Rain Light Rain
2:12 PM 60.8 °F 55.4 °F 82% 30.24 in 10.0 mi North 12.7 mph - 0.01 in Rain Light Rain
2:53 PM 61.0 °F 55.9 °F 83% 30.24 in 10.0 mi North 9.2 mph - 0.01 in   Overcast
3:53 PM 60.1 °F 54.0 °F 80% 30.25 in 10.0 mi North 17.3 mph - N/A   Overcast
4:00 PM 60.8 °F 53.6 °F 77% 30.24 in 10.0 mi North 16.1 mph - N/A   Overcast
4:53 PM 59.0 °F 51.1 °F 75% 30.27 in 10.0 mi North 15.0 mph 24.2 mph N/A   Overcast
5:16 PM 59.0 °F 51.8 °F 77% 30.28 in 10.0 mi North 15.0 mph - N/A   Overcast
5:53 PM 59.0 °F 50.0 °F 72% 30.30 in 10.0 mi North 15.0 mph 21.9 mph N/A   Mostly Cloudy
6:53 PM 59.0 °F 50.0 °F 72% 30.31 in 10.0 mi North 15.0 mph 20.7 mph N/A   Overcast
7:53 PM 57.9 °F 51.1 °F 78% 30.32 in 10.0 mi North 12.7 mph 23.0 mph N/A   Mostly Cloudy
8:53 PM 55.9 °F 46.9 °F 72% 30.32 in 10.0 mi North 16.1 mph 26.5 mph N/A   Clear
9:53 PM 52.0 °F 43.0 °F 71% 30.33 in 10.0 mi North 15.0 mph 26.5 mph N/A   Clear
10:53 PM 51.1 °F 41.0 °F 68% 30.34 in 10.0 mi North 15.0 mph 28.8 mph N/A   Clear
11:53 PM 50.0 °F 39.9 °F 68% 30.33 in 10.0 mi North 13.8 mph - N/A   Clear